User: anonymous
Location: Coleman
(45.0650°N, 88.0340°W)
Time: 20:18:00
(UTC-05:00)
Language:

Iridium 97 - Orbit

View from above orbital plane
View from above orbital plane
View from above satellite
View from above satellite

Ground track
Ground track

The orbit data is extracted from the following two-line orbital elements,

1 27450U 02031A   14211.47414689  .00000029  00000-0  33103-5 0  3020
2 27450 086.3939 038.9422 0003258 094.1189 266.0379 14.34215129639346
Epoch (UTC): 30 July 2014 11:22:46
Eccentricity: 0.0003258
inclination: 86.3939°
perigee height: 775 km
apogee height: 780 km
right ascension of ascending node: 38.9422°
argument of perigee: 94.1189°
revolutions per day: 14.34215129
mean anomaly at epoch: 266.0379°
orbit number at epoch: 63934

The dashed part of the orbit path shows where the satellite is in the earth's shadow,  

DLR